owner,sensor,date,latitude,longitude,vertical_datum,sea_water_temperature,qcFlag 
TCOON,ioos:station:TCOON:057:1,2004-01-01T00:00:00Z,28.4460,-96.3961,0.0,17.3,11111222 
TCOON,ioos:station:TCOON:057:1,2004-01-01T01:00:00Z,28.4460,-96.3961,0.0,17.3,11111222 
TCOON,ioos:station:TCOON:057:1,2004-01-01T03:00:00Z,28.4460,-96.3961,0.0,17.3,11111222 
TCOON,ioos:station:TCOON:057:1,2004-01-01T04:00:00Z,28.4460,-96.3961,0.0,17.2,11111222 
TCOON,ioos:station:TCOON:057:1,2004-01-01T06:00:00Z,28.4460,-96.3961,0.0,17.1,11111222 
TCOON,ioos:station:TCOON:057:1,2004-01-01T07:00:00Z,28.4460,-96.3961,0.0,17.3,11111222 
TCOON,ioos:station:TCOON:057:1,2004-01-01T09:00:00Z,28.4460,-96.3961,0.0,17.3,11111222 
TCOON,ioos:station:TCOON:057:1,2004-01-01T10:00:00Z,28.4460,-96.3961,0.0,17.3,11111222 
TCOON,ioos:station:TCOON:057:1,2004-01-01T12:00:00Z,28.4460,-96.3961,0.0,17.4,11111222 
TCOON,ioos:station:TCOON:057:1,2004-01-01T13:00:00Z,28.4460,-96.3961,0.0,17.4,11111222 
TCOON,ioos:station:TCOON:057:1,2004-01-01T15:00:00Z,28.4460,-96.3961,0.0,17.4,11111222 
TCOON,ioos:station:TCOON:057:1,2004-01-01T16:00:00Z,28.4460,-96.3961,0.0,17.4,11111222 
TCOON,ioos:station:TCOON:057:1,2004-01-01T18:00:00Z,28.4460,-96.3961,0.0,17.6,11111222 
TCOON,ioos:station:TCOON:057:1,2004-01-01T19:00:00Z,28.4460,-96.3961,0.0,17.7,11111222 
TCOON,ioos:station:TCOON:057:1,2004-01-01T21:00:00Z,28.4460,-96.3961,0.0,18.0,11111222 
TCOON,ioos:station:TCOON:057:1,2004-01-01T22:00:00Z,28.4460,-96.3961,0.0,18.1,11111222 
TCOON,ioos:station:TCOON:057:1,2004-01-02T00:00:00Z,28.4460,-96.3961,0.0,18.6,11111222 
TCOON,ioos:station:TCOON:057:1,2004-01-02T01:00:00Z,28.4460,-96.3961,0.0,18.5,11111222 
TCOON,ioos:station:TCOON:057:1,2004-01-02T03:00:00Z,28.4460,-96.3961,0.0,17.9,11111222 
TCOON,ioos:station:TCOON:057:1,2004-01-02T04:00:00Z,28.4460,-96.3961,0.0,17.9,11111222 
TCOON,ioos:station:TCOON:057:1,2004-01-02T06:00:00Z,28.4460,-96.3961,0.0,17.8,11111222 
TCOON,ioos:station:TCOON:057:1,2004-01-02T07:00:00Z,28.4460,-96.3961,0.0,17.8,11111222 
TCOON,ioos:station:TCOON:057:1,2004-01-02T09:00:00Z,28.4460,-96.3961,0.0,18.2,11111222 
TCOON,ioos:station:TCOON:057:1,2004-01-02T10:00:00Z,28.4460,-96.3961,0.0,18.2,11111222 
TCOON,ioos:station:TCOON:057:1,2004-01-02T12:00:00Z,28.4460,-96.3961,0.0,18.2,11111222 
TCOON,ioos:station:TCOON:057:1,2004-01-02T13:00:00Z,28.4460,-96.3961,0.0,18.3,11111222 
TCOON,ioos:station:TCOON:057:1,2004-01-02T15:00:00Z,28.4460,-96.3961,0.0,18.0,11111222 
TCOON,ioos:station:TCOON:057:1,2004-01-02T16:00:00Z,28.4460,-96.3961,0.0,18.1,11111222 
TCOON,ioos:station:TCOON:057:1,2004-01-02T18:00:00Z,28.4460,-96.3961,0.0,18.5,11111222 
TCOON,ioos:station:TCOON:057:1,2004-01-02T19:00:00Z,28.4460,-96.3961,0.0,18.5,11111222 
TCOON,ioos:station:TCOON:057:1,2004-01-02T21:00:00Z,28.4460,-96.3961,0.0,19.2,11111222 
TCOON,ioos:station:TCOON:057:1,2004-01-02T22:00:00Z,28.4460,-96.3961,0.0,19.3,11111222 
TCOON,ioos:station:TCOON:057:1,2004-01-03T00:00:00Z,28.4460,-96.3961,0.0,19.4,11111222 
TCOON,ioos:station:TCOON:057:1,2004-01-03T01:00:00Z,28.4460,-96.3961,0.0,19.6,11111222 
TCOON,ioos:station:TCOON:057:1,2004-01-03T03:00:00Z,28.4460,-96.3961,0.0,19.5,11111222 
TCOON,ioos:station:TCOON:057:1,2004-01-03T04:00:00Z,28.4460,-96.3961,0.0,19.2,11111222 
TCOON,ioos:station:TCOON:057:1,2004-01-03T06:00:00Z,28.4460,-96.3961,0.0,19.0,11111222 
TCOON,ioos:station:TCOON:057:1,2004-01-03T07:00:00Z,28.4460,-96.3961,0.0,19.3,11111222 
TCOON,ioos:station:TCOON:057:1,2004-01-03T09:00:00Z,28.4460,-96.3961,0.0,19.6,11111222 
TCOON,ioos:station:TCOON:057:1,2004-01-03T10:00:00Z,28.4460,-96.3961,0.0,19.6,11111222 
TCOON,ioos:station:TCOON:057:1,2004-01-03T12:00:00Z,28.4460,-96.3961,0.0,19.5,11111222 
TCOON,ioos:station:TCOON:057:1,2004-01-03T13:00:00Z,28.4460,-96.3961,0.0,19.4,11111222 
TCOON,ioos:station:TCOON:057:1,2004-01-03T16:00:00Z,28.4460,-96.3961,0.0,19.5,11111222 
TCOON,ioos:station:TCOON:057:1,2004-01-03T18:00:00Z,28.4460,-96.3961,0.0,19.7,11111222 
TCOON,ioos:station:TCOON:057:1,2004-01-03T19:00:00Z,28.4460,-96.3961,0.0,19.6,11111222 
TCOON,ioos:station:TCOON:057:1,2004-01-03T22:00:00Z,28.4460,-96.3961,0.0,20.4,11111222 
TCOON,ioos:station:TCOON:057:1,2004-01-04T01:00:00Z,28.4460,-96.3961,0.0,20.5,11111222 
TCOON,ioos:station:TCOON:057:1,2004-01-04T03:00:00Z,28.4460,-96.3961,0.0,18.8,11111222 
TCOON,ioos:station:TCOON:057:1,2004-01-04T04:00:00Z,28.4460,-96.3961,0.0,18.5,11111222 
TCOON,ioos:station:TCOON:057:1,2004-01-04T06:00:00Z,28.4460,-96.3961,0.0,18.5,11111222 
TCOON,ioos:station:TCOON:057:1,2004-01-04T07:00:00Z,28.4460,-96.3961,0.0,18.5,11111222 
TCOON,ioos:station:TCOON:057:1,2004-01-04T09:00:00Z,28.4460,-96.3961,0.0,19.2,11111222 
TCOON,ioos:station:TCOON:057:1,2004-01-04T10:00:00Z,28.4460,-96.3961,0.0,19.4,11111222 
TCOON,ioos:station:TCOON:057:1,2004-01-04T12:00:00Z,28.4460,-96.3961,0.0,18.9,11111222 
TCOON,ioos:station:TCOON:057:1,2004-01-04T13:00:00Z,28.4460,-96.3961,0.0,19.0,11111222 
TCOON,ioos:station:TCOON:057:1,2004-01-04T18:00:00Z,28.4460,-96.3961,0.0,19.7,11111222 
TCOON,ioos:station:TCOON:057:1,2004-01-04T19:00:00Z,28.4460,-96.3961,0.0,20.0,11111222 
TCOON,ioos:station:TCOON:057:1,2004-01-04T22:00:00Z,28.4460,-96.3961,0.0,20.2,11111222 
TCOON,ioos:station:TCOON:057:1,2004-01-05T00:00:00Z,28.4460,-96.3961,0.0,20.9,11111222 
TCOON,ioos:station:TCOON:057:1,2004-01-05T01:00:00Z,28.4460,-96.3961,0.0,20.6,11111222 
TCOON,ioos:station:TCOON:057:1,2004-01-05T03:00:00Z,28.4460,-96.3961,0.0,19.0,11111222 
TCOON,ioos:station:TCOON:057:1,2004-01-05T04:00:00Z,28.4460,-96.3961,0.0,20.1,11111222 
TCOON,ioos:station:TCOON:057:1,2004-01-05T06:00:00Z,28.4460,-96.3961,0.0,19.7,11111222 
TCOON,ioos:station:TCOON:057:1,2004-01-05T07:00:00Z,28.4460,-96.3961,0.0,19.1,11111222 
TCOON,ioos:station:TCOON:057:1,2004-01-05T09:00:00Z,28.4460,-96.3961,0.0,17.8,11111222 
TCOON,ioos:station:TCOON:057:1,2004-01-05T10:00:00Z,28.4460,-96.3961,0.0,17.1,11111222 
TCOON,ioos:station:TCOON:057:1,2004-01-05T12:00:00Z,28.4460,-96.3961,0.0,15.7,11111222 
TCOON,ioos:station:TCOON:057:1,2004-01-05T13:00:00Z,28.4460,-96.3961,0.0,15.3,11111222 
TCOON,ioos:station:TCOON:057:1,2004-01-05T15:00:00Z,28.4460,-96.3961,0.0,14.7,11111222 
TCOON,ioos:station:TCOON:057:1,2004-01-05T16:00:00Z,28.4460,-96.3961,0.0,13.8,11111222 
TCOON,ioos:station:TCOON:057:1,2004-01-05T19:00:00Z,28.4460,-96.3961,0.0,13.7,11111222 
TCOON,ioos:station:TCOON:057:1,2004-01-05T21:00:00Z,28.4460,-96.3961,0.0,13.7,11111222 
TCOON,ioos:station:TCOON:057:1,2004-01-05T22:00:00Z,28.4460,-96.3961,0.0,13.4,11111222 
TCOON,ioos:station:TCOON:057:1,2004-01-06T01:00:00Z,28.4460,-96.3961,0.0,12.6,11111222 
TCOON,ioos:station:TCOON:057:1,2004-01-06T03:00:00Z,28.4460,-96.3961,0.0,12.2,11111222 
TCOON,ioos:station:TCOON:057:1,2004-01-06T04:00:00Z,28.4460,-96.3961,0.0,12.2,11111222 
TCOON,ioos:station:TCOON:057:1,2004-01-06T06:00:00Z,28.4460,-96.3961,0.0,11.5,11111222 
TCOON,ioos:station:TCOON:057:1,2004-01-06T07:00:00Z,28.4460,-96.3961,0.0,11.2,11111222 
TCOON,ioos:station:TCOON:057:1,2004-01-06T09:00:00Z,28.4460,-96.3961,0.0,10.7,11111222 
TCOON,ioos:station:TCOON:057:1,2004-01-06T10:00:00Z,28.4460,-96.3961,0.0,10.2,11111222 
TCOON,ioos:station:TCOON:057:1,2004-01-06T12:00:00Z,28.4460,-96.3961,0.0,9.6,11133222 
TCOON,ioos:station:TCOON:057:1,2004-01-07T21:00:00Z,28.4460,-96.3961,0.0,11.8,11111222 
TCOON,ioos:station:TCOON:057:1,2004-01-07T22:00:00Z,28.4460,-96.3961,0.0,11.7,11111222 
TCOON,ioos:station:TCOON:057:1,2004-01-08T06:00:00Z,28.4460,-96.3961,0.0,13.6,11111222 
TCOON,ioos:station:TCOON:057:1,2004-01-08T07:00:00Z,28.4460,-96.3961,0.0,13.5,11111222 
TCOON,ioos:station:TCOON:057:1,2004-01-08T09:00:00Z,28.4460,-96.3961,0.0,13.5,11111222 
TCOON,ioos:station:TCOON:057:1,2004-01-08T10:00:00Z,28.4460,-96.3961,0.0,13.5,11111222 
TCOON,ioos:station:TCOON:057:1,2004-01-08T12:00:00Z,28.4460,-96.3961,0.0,13.5,11111222 
TCOON,ioos:station:TCOON:057:1,2004-01-08T13:00:00Z,28.4460,-96.3961,0.0,13.5,11111222 
TCOON,ioos:station:TCOON:057:1,2004-01-08T18:00:00Z,28.4460,-96.3961,0.0,13.8,11111222 
TCOON,ioos:station:TCOON:057:1,2004-01-08T19:00:00Z,28.4460,-96.3961,0.0,14.2,11111222 
TCOON,ioos:station:TCOON:057:1,2004-01-08T21:00:00Z,28.4460,-96.3961,0.0,14.3,11111222 
TCOON,ioos:station:TCOON:057:1,2004-01-08T22:00:00Z,28.4460,-96.3961,0.0,14.5,11111222 
TCOON,ioos:station:TCOON:057:1,2004-01-09T00:00:00Z,28.4460,-96.3961,0.0,14.5,11111222 
TCOON,ioos:station:TCOON:057:1,2004-01-09T01:00:00Z,28.4460,-96.3961,0.0,14.4,11111222 
TCOON,ioos:station:TCOON:057:1,2004-01-09T07:00:00Z,28.4460,-96.3961,0.0,14.7,11111222 
TCOON,ioos:station:TCOON:057:1,2004-01-09T12:00:00Z,28.4460,-96.3961,0.0,14.2,11111222 
TCOON,ioos:station:TCOON:057:1,2004-01-09T13:00:00Z,28.4460,-96.3961,0.0,14.0,11111222 
TCOON,ioos:station:TCOON:057:1,2004-01-09T15:00:00Z,28.4460,-96.3961,0.0,13.5,11111222 
TCOON,ioos:station:TCOON:057:1,2004-01-09T16:00:00Z,28.4460,-96.3961,0.0,13.6,11111222 
TCOON,ioos:station:TCOON:057:1,2004-01-09T18:00:00Z,28.4460,-96.3961,0.0,14.5,11111222 
TCOON,ioos:station:TCOON:057:1,2004-01-09T19:00:00Z,28.4460,-96.3961,0.0,15.1,11111222 
TCOON,ioos:station:TCOON:057:1,2004-01-09T21:00:00Z,28.4460,-96.3961,0.0,15.6,11111222 
TCOON,ioos:station:TCOON:057:1,2004-01-09T22:00:00Z,28.4460,-96.3961,0.0,16.0,11111222 
TCOON,ioos:station:TCOON:057:1,2004-01-10T00:00:00Z,28.4460,-96.3961,0.0,15.6,11111222 
TCOON,ioos:station:TCOON:057:1,2004-01-10T01:00:00Z,28.4460,-96.3961,0.0,15.3,11111222 
TCOON,ioos:station:TCOON:057:1,2004-01-10T03:00:00Z,28.4460,-96.3961,0.0,14.7,11111222 
TCOON,ioos:station:TCOON:057:1,2004-01-10T04:00:00Z,28.4460,-96.3961,0.0,14.5,11111222 
TCOON,ioos:station:TCOON:057:1,2004-01-10T09:00:00Z,28.4460,-96.3961,0.0,13.0,11111222 
TCOON,ioos:station:TCOON:057:1,2004-01-10T10:00:00Z,28.4460,-96.3961,0.0,12.4,11111222 
TCOON,ioos:station:TCOON:057:1,2004-01-10T12:00:00Z,28.4460,-96.3961,0.0,11.7,11111222 
TCOON,ioos:station:TCOON:057:1,2004-01-10T13:00:00Z,28.4460,-96.3961,0.0,11.3,11111222 
TCOON,ioos:station:TCOON:057:1,2004-01-12T18:00:00Z,28.4460,-96.3961,0.0,15.0,11111222 
TCOON,ioos:station:TCOON:057:1,2004-01-12T19:00:00Z,28.4460,-96.3961,0.0,15.5,11111222 
TCOON,ioos:station:TCOON:057:1,2004-01-12T21:00:00Z,28.4460,-96.3961,0.0,15.8,11111222 
TCOON,ioos:station:TCOON:057:1,2004-01-12T22:00:00Z,28.4460,-96.3961,0.0,15.8,11111222 
TCOON,ioos:station:TCOON:057:1,2004-01-13T00:00:00Z,28.4460,-96.3961,0.0,15.8,11111222 
TCOON,ioos:station:TCOON:057:1,2004-01-13T01:00:00Z,28.4460,-96.3961,0.0,15.6,11111222 
TCOON,ioos:station:TCOON:057:1,2004-01-13T03:00:00Z,28.4460,-96.3961,0.0,15.4,11111222 
TCOON,ioos:station:TCOON:057:1,2004-01-13T04:00:00Z,28.4460,-96.3961,0.0,15.3,11111222 
TCOON,ioos:station:TCOON:057:1,2004-01-13T06:00:00Z,28.4460,-96.3961,0.0,15.4,11111222 
TCOON,ioos:station:TCOON:057:1,2004-01-13T07:00:00Z,28.4460,-96.3961,0.0,15.5,11111222 
TCOON,ioos:station:TCOON:057:1,2004-01-13T09:00:00Z,28.4460,-96.3961,0.0,15.4,11111222 
TCOON,ioos:station:TCOON:057:1,2004-01-13T10:00:00Z,28.4460,-96.3961,0.0,15.3,11111222 
TCOON,ioos:station:TCOON:057:1,2004-01-13T12:00:00Z,28.4460,-96.3961,0.0,15.2,11111222 
TCOON,ioos:station:TCOON:057:1,2004-01-13T13:00:00Z,28.4460,-96.3961,0.0,15.3,11111222 
TCOON,ioos:station:TCOON:057:1,2004-01-13T15:00:00Z,28.4460,-96.3961,0.0,15.3,11111222 
TCOON,ioos:station:TCOON:057:1,2004-01-13T16:00:00Z,28.4460,-96.3961,0.0,15.4,11111222 
TCOON,ioos:station:TCOON:057:1,2004-01-13T18:00:00Z,28.4460,-96.3961,0.0,15.9,11111222 
TCOON,ioos:station:TCOON:057:1,2004-01-13T19:00:00Z,28.4460,-96.3961,0.0,15.7,11111222 
TCOON,ioos:station:TCOON:057:1,2004-01-13T21:00:00Z,28.4460,-96.3961,0.0,16.0,11111222 
TCOON,ioos:station:TCOON:057:1,2004-01-13T22:00:00Z,28.4460,-96.3961,0.0,16.0,11111222 
TCOON,ioos:station:TCOON:057:1,2004-01-14T00:00:00Z,28.4460,-96.3961,0.0,16.1,11111222 
TCOON,ioos:station:TCOON:057:1,2004-01-14T01:00:00Z,28.4460,-96.3961,0.0,16.1,11111222 
TCOON,ioos:station:TCOON:057:1,2004-01-14T03:00:00Z,28.4460,-96.3961,0.0,16.1,11111222 
TCOON,ioos:station:TCOON:057:1,2004-01-14T04:00:00Z,28.4460,-96.3961,0.0,16.1,11111222 
TCOON,ioos:station:TCOON:057:1,2004-01-14T06:00:00Z,28.4460,-96.3961,0.0,16.1,11111222 
TCOON,ioos:station:TCOON:057:1,2004-01-14T07:00:00Z,28.4460,-96.3961,0.0,16.0,11111222 
TCOON,ioos:station:TCOON:057:1,2004-01-14T09:00:00Z,28.4460,-96.3961,0.0,16.0,11111222 
TCOON,ioos:station:TCOON:057:1,2004-01-14T10:00:00Z,28.4460,-96.3961,0.0,16.0,11111222 
TCOON,ioos:station:TCOON:057:1,2004-01-14T12:00:00Z,28.4460,-96.3961,0.0,16.0,11111222 
TCOON,ioos:station:TCOON:057:1,2004-01-14T13:00:00Z,28.4460,-96.3961,0.0,15.7,11111222 
TCOON,ioos:station:TCOON:057:1,2004-01-14T15:00:00Z,28.4460,-96.3961,0.0,15.8,11111222 
TCOON,ioos:station:TCOON:057:1,2004-01-14T16:00:00Z,28.4460,-96.3961,0.0,15.5,11111222 
TCOON,ioos:station:TCOON:057:1,2004-01-14T18:00:00Z,28.4460,-96.3961,0.0,15.8,11111222 
TCOON,ioos:station:TCOON:057:1,2004-01-14T19:00:00Z,28.4460,-96.3961,0.0,15.9,11111222 
TCOON,ioos:station:TCOON:057:1,2004-01-14T22:00:00Z,28.4460,-96.3961,0.0,16.0,11111222 
TCOON,ioos:station:TCOON:057:1,2004-01-15T00:00:00Z,28.4460,-96.3961,0.0,16.2,11111222 
TCOON,ioos:station:TCOON:057:1,2004-01-15T01:00:00Z,28.4460,-96.3961,0.0,16.2,11111222 
TCOON,ioos:station:TCOON:057:1,2004-01-15T03:00:00Z,28.4460,-96.3961,0.0,15.9,11111222 
TCOON,ioos:station:TCOON:057:1,2004-01-15T04:00:00Z,28.4460,-96.3961,0.0,16.1,11111222 
TCOON,ioos:station:TCOON:057:1,2004-01-15T06:00:00Z,28.4460,-96.3961,0.0,16.2,11111222 
TCOON,ioos:station:TCOON:057:1,2004-01-15T07:00:00Z,28.4460,-96.3961,0.0,16.1,11111222 
TCOON,ioos:station:TCOON:057:1,2004-01-15T09:00:00Z,28.4460,-96.3961,0.0,15.8,11111222 
TCOON,ioos:station:TCOON:057:1,2004-01-15T10:00:00Z,28.4460,-96.3961,0.0,15.9,11111222 
TCOON,ioos:station:TCOON:057:1,2004-01-15T12:00:00Z,28.4460,-96.3961,0.0,15.9,11111222 
TCOON,ioos:station:TCOON:057:1,2004-01-15T13:00:00Z,28.4460,-96.3961,0.0,15.7,11111222 
TCOON,ioos:station:TCOON:057:1,2004-01-15T15:00:00Z,28.4460,-96.3961,0.0,15.2,11111222 
TCOON,ioos:station:TCOON:057:1,2004-01-15T16:00:00Z,28.4460,-96.3961,0.0,15.7,11111222 
TCOON,ioos:station:TCOON:057:1,2004-01-15T18:00:00Z,28.4460,-96.3961,0.0,16.3,11111222 
TCOON,ioos:station:TCOON:057:1,2004-01-15T19:00:00Z,28.4460,-96.3961,0.0,16.3,11111222 
TCOON,ioos:station:TCOON:057:1,2004-01-15T21:00:00Z,28.4460,-96.3961,0.0,16.0,11111222 
TCOON,ioos:station:TCOON:057:1,2004-01-15T22:00:00Z,28.4460,-96.3961,0.0,15.8,11111222 
TCOON,ioos:station:TCOON:057:1,2004-01-16T00:00:00Z,28.4460,-96.3961,0.0,15.7,11111222 
TCOON,ioos:station:TCOON:057:1,2004-01-16T01:00:00Z,28.4460,-96.3961,0.0,15.7,11111222 
TCOON,ioos:station:TCOON:057:1,2004-01-16T03:00:00Z,28.4460,-96.3961,0.0,15.5,11111222 
TCOON,ioos:station:TCOON:057:1,2004-01-16T04:00:00Z,28.4460,-96.3961,0.0,15.5,11111222 
TCOON,ioos:station:TCOON:057:1,2004-01-16T06:00:00Z,28.4460,-96.3961,0.0,15.6,11111222 
TCOON,ioos:station:TCOON:057:1,2004-01-16T07:00:00Z,28.4460,-96.3961,0.0,15.6,11111222 
TCOON,ioos:station:TCOON:057:1,2004-01-16T09:00:00Z,28.4460,-96.3961,0.0,15.7,11111222 
TCOON,ioos:station:TCOON:057:1,2004-01-16T10:00:00Z,28.4460,-96.3961,0.0,15.9,11111222 
TCOON,ioos:station:TCOON:057:1,2004-01-16T12:00:00Z,28.4460,-96.3961,0.0,15.8,11111222 
TCOON,ioos:station:TCOON:057:1,2004-01-16T13:00:00Z,28.4460,-96.3961,0.0,15.8,11111222 
TCOON,ioos:station:TCOON:057:1,2004-01-16T15:00:00Z,28.4460,-96.3961,0.0,16.0,11111222 
TCOON,ioos:station:TCOON:057:1,2004-01-16T16:00:00Z,28.4460,-96.3961,0.0,16.1,11111222 
TCOON,ioos:station:TCOON:057:1,2004-01-16T18:00:00Z,28.4460,-96.3961,0.0,16.4,11111222 
TCOON,ioos:station:TCOON:057:1,2004-01-16T19:00:00Z,28.4460,-96.3961,0.0,16.5,11111222 
TCOON,ioos:station:TCOON:057:1,2004-01-16T21:00:00Z,28.4460,-96.3961,0.0,16.3,11111222 
TCOON,ioos:station:TCOON:057:1,2004-01-16T22:00:00Z,28.4460,-96.3961,0.0,16.5,11111222 
TCOON,ioos:station:TCOON:057:1,2004-01-17T00:00:00Z,28.4460,-96.3961,0.0,16.5,11111222 
TCOON,ioos:station:TCOON:057:1,2004-01-17T01:00:00Z,28.4460,-96.3961,0.0,16.5,11111222 
TCOON,ioos:station:TCOON:057:1,2004-01-17T03:00:00Z,28.4460,-96.3961,0.0,16.4,11111222 
TCOON,ioos:station:TCOON:057:1,2004-01-17T04:00:00Z,28.4460,-96.3961,0.0,16.4,11111222 
TCOON,ioos:station:TCOON:057:1,2004-01-17T06:00:00Z,28.4460,-96.3961,0.0,16.5,11111222 
TCOON,ioos:station:TCOON:057:1,2004-01-17T07:00:00Z,28.4460,-96.3961,0.0,16.6,11111222 
TCOON,ioos:station:TCOON:057:1,2004-01-17T09:00:00Z,28.4460,-96.3961,0.0,16.8,11111222 
TCOON,ioos:station:TCOON:057:1,2004-01-17T10:00:00Z,28.4460,-96.3961,0.0,16.7,11111222 
TCOON,ioos:station:TCOON:057:1,2004-01-17T12:00:00Z,28.4460,-96.3961,0.0,16.8,11111222 
TCOON,ioos:station:TCOON:057:1,2004-01-17T13:00:00Z,28.4460,-96.3961,0.0,16.8,11111222 
TCOON,ioos:station:TCOON:057:1,2004-01-17T15:00:00Z,28.4460,-96.3961,0.0,16.3,11111222 
TCOON,ioos:station:TCOON:057:1,2004-01-17T16:00:00Z,28.4460,-96.3961,0.0,16.4,11111222 
TCOON,ioos:station:TCOON:057:1,2004-01-17T18:00:00Z,28.4460,-96.3961,0.0,16.6,11111222 
TCOON,ioos:station:TCOON:057:1,2004-01-17T19:00:00Z,28.4460,-96.3961,0.0,16.7,11111222 
TCOON,ioos:station:TCOON:057:1,2004-01-17T21:00:00Z,28.4460,-96.3961,0.0,17.4,11111222 
TCOON,ioos:station:TCOON:057:1,2004-01-17T22:00:00Z,28.4460,-96.3961,0.0,17.8,11111222 
TCOON,ioos:station:TCOON:057:1,2004-01-18T00:00:00Z,28.4460,-96.3961,0.0,17.0,11111222 
TCOON,ioos:station:TCOON:057:1,2004-01-18T01:00:00Z,28.4460,-96.3961,0.0,17.0,11111222 
TCOON,ioos:station:TCOON:057:1,2004-01-18T03:00:00Z,28.4460,-96.3961,0.0,17.1,11111222 
TCOON,ioos:station:TCOON:057:1,2004-01-18T04:00:00Z,28.4460,-96.3961,0.0,17.5,11111222 
TCOON,ioos:station:TCOON:057:1,2004-01-18T06:00:00Z,28.4460,-96.3961,0.0,17.3,11111222 
TCOON,ioos:station:TCOON:057:1,2004-01-18T07:00:00Z,28.4460,-96.3961,0.0,17.2,11111222 
TCOON,ioos:station:TCOON:057:1,2004-01-18T09:00:00Z,28.4460,-96.3961,0.0,16.7,11111222 
TCOON,ioos:station:TCOON:057:1,2004-01-18T10:00:00Z,28.4460,-96.3961,0.0,16.5,11111222 
TCOON,ioos:station:TCOON:057:1,2004-01-18T12:00:00Z,28.4460,-96.3961,0.0,16.0,11111222 
TCOON,ioos:station:TCOON:057:1,2004-01-18T13:00:00Z,28.4460,-96.3961,0.0,15.7,11111222 
TCOON,ioos:station:TCOON:057:1,2004-01-18T15:00:00Z,28.4460,-96.3961,0.0,15.5,11111222 
TCOON,ioos:station:TCOON:057:1,2004-01-18T16:00:00Z,28.4460,-96.3961,0.0,14.8,11111222 
TCOON,ioos:station:TCOON:057:1,2004-01-18T18:00:00Z,28.4460,-96.3961,0.0,15.9,11111222 
TCOON,ioos:station:TCOON:057:1,2004-01-18T19:00:00Z,28.4460,-96.3961,0.0,16.6,11111222 
TCOON,ioos:station:TCOON:057:1,2004-01-18T21:00:00Z,28.4460,-96.3961,0.0,17.4,11111222 
TCOON,ioos:station:TCOON:057:1,2004-01-18T22:00:00Z,28.4460,-96.3961,0.0,17.3,11111222 
TCOON,ioos:station:TCOON:057:1,2004-01-19T00:00:00Z,28.4460,-96.3961,0.0,16.2,11111222 
TCOON,ioos:station:TCOON:057:1,2004-01-19T01:00:00Z,28.4460,-96.3961,0.0,15.5,11111222 
TCOON,ioos:station:TCOON:057:1,2004-01-19T03:00:00Z,28.4460,-96.3961,0.0,14.0,11111222 
TCOON,ioos:station:TCOON:057:1,2004-01-19T04:00:00Z,28.4460,-96.3961,0.0,13.2,11111222 
TCOON,ioos:station:TCOON:057:1,2004-01-19T06:00:00Z,28.4460,-96.3961,0.0,11.9,11111222 
TCOON,ioos:station:TCOON:057:1,2004-01-19T07:00:00Z,28.4460,-96.3961,0.0,11.4,11111222 
TCOON,ioos:station:TCOON:057:1,2004-01-19T09:00:00Z,28.4460,-96.3961,0.0,10.0,11111222 
TCOON,ioos:station:TCOON:057:1,2004-01-19T10:00:00Z,28.4460,-96.3961,0.0,10.2,11111222 
TCOON,ioos:station:TCOON:057:1,2004-01-19T12:00:00Z,28.4460,-96.3961,0.0,9.6,11133222 
TCOON,ioos:station:TCOON:057:1,2004-01-19T13:00:00Z,28.4460,-96.3961,0.0,9.2,11133222 
TCOON,ioos:station:TCOON:057:1,2004-01-19T15:00:00Z,28.4460,-96.3961,0.0,9.1,11133222 
TCOON,ioos:station:TCOON:057:1,2004-01-19T16:00:00Z,28.4460,-96.3961,0.0,9.4,11133222 
TCOON,ioos:station:TCOON:057:1,2004-01-19T18:00:00Z,28.4460,-96.3961,0.0,10.6,11111222 
TCOON,ioos:station:TCOON:057:1,2004-01-19T19:00:00Z,28.4460,-96.3961,0.0,11.5,11111222 
TCOON,ioos:station:TCOON:057:1,2004-01-19T21:00:00Z,28.4460,-96.3961,0.0,12.4,11111222 
TCOON,ioos:station:TCOON:057:1,2004-01-19T22:00:00Z,28.4460,-96.3961,0.0,12.8,11111222 
TCOON,ioos:station:TCOON:057:1,2004-01-20T00:00:00Z,28.4460,-96.3961,0.0,14.9,11111222 
TCOON,ioos:station:TCOON:057:1,2004-01-20T01:00:00Z,28.4460,-96.3961,0.0,15.2,11111222 
TCOON,ioos:station:TCOON:057:1,2004-01-20T03:00:00Z,28.4460,-96.3961,0.0,15.2,11111222 
TCOON,ioos:station:TCOON:057:1,2004-01-20T04:00:00Z,28.4460,-96.3961,0.0,15.1,11111222 
TCOON,ioos:station:TCOON:057:1,2004-01-20T06:00:00Z,28.4460,-96.3961,0.0,14.5,11111222 
TCOON,ioos:station:TCOON:057:1,2004-01-20T07:00:00Z,28.4460,-96.3961,0.0,14.2,11111222 
TCOON,ioos:station:TCOON:057:1,2004-01-20T09:00:00Z,28.4460,-96.3961,0.0,12.9,11111222 
TCOON,ioos:station:TCOON:057:1,2004-01-20T10:00:00Z,28.4460,-96.3961,0.0,12.7,11111222 
TCOON,ioos:station:TCOON:057:1,2004-01-20T12:00:00Z,28.4460,-96.3961,0.0,12.7,11111222 
TCOON,ioos:station:TCOON:057:1,2004-01-20T13:00:00Z,28.4460,-96.3961,0.0,11.9,11111222 
TCOON,ioos:station:TCOON:057:1,2004-01-20T15:00:00Z,28.4460,-96.3961,0.0,12.0,11111222 
TCOON,ioos:station:TCOON:057:1,2004-01-20T16:00:00Z,28.4460,-96.3961,0.0,12.2,11111222 
TCOON,ioos:station:TCOON:057:1,2004-01-20T18:00:00Z,28.4460,-96.3961,0.0,13.2,11111222 
TCOON,ioos:station:TCOON:057:1,2004-01-20T19:00:00Z,28.4460,-96.3961,0.0,14.1,11111222 
TCOON,ioos:station:TCOON:057:1,2004-01-20T21:00:00Z,28.4460,-96.3961,0.0,14.7,11111222 
TCOON,ioos:station:TCOON:057:1,2004-01-20T22:00:00Z,28.4460,-96.3961,0.0,14.5,11111222 
TCOON,ioos:station:TCOON:057:1,2004-01-21T00:00:00Z,28.4460,-96.3961,0.0,14.4,11111222 
TCOON,ioos:station:TCOON:057:1,2004-01-21T01:00:00Z,28.4460,-96.3961,0.0,14.4,11111222 
TCOON,ioos:station:TCOON:057:1,2004-01-21T03:00:00Z,28.4460,-96.3961,0.0,14.5,11111222 
TCOON,ioos:station:TCOON:057:1,2004-01-21T04:00:00Z,28.4460,-96.3961,0.0,14.5,11111222 
TCOON,ioos:station:TCOON:057:1,2004-01-21T06:00:00Z,28.4460,-96.3961,0.0,14.2,11111222 
TCOON,ioos:station:TCOON:057:1,2004-01-21T07:00:00Z,28.4460,-96.3961,0.0,14.2,11111222 
TCOON,ioos:station:TCOON:057:1,2004-01-21T09:00:00Z,28.4460,-96.3961,0.0,14.0,11111222 
TCOON,ioos:station:TCOON:057:1,2004-01-21T10:00:00Z,28.4460,-96.3961,0.0,13.8,11111222 
TCOON,ioos:station:TCOON:057:1,2004-01-21T12:00:00Z,28.4460,-96.3961,0.0,13.5,11111222 
TCOON,ioos:station:TCOON:057:1,2004-01-21T13:00:00Z,28.4460,-96.3961,0.0,13.3,11111222 
TCOON,ioos:station:TCOON:057:1,2004-01-21T15:00:00Z,28.4460,-96.3961,0.0,13.2,11111222 
TCOON,ioos:station:TCOON:057:1,2004-01-21T16:00:00Z,28.4460,-96.3961,0.0,13.2,11111222 
TCOON,ioos:station:TCOON:057:1,2004-01-21T18:00:00Z,28.4460,-96.3961,0.0,13.8,11111222 
TCOON,ioos:station:TCOON:057:1,2004-01-21T19:00:00Z,28.4460,-96.3961,0.0,14.2,11111222 
TCOON,ioos:station:TCOON:057:1,2004-01-21T21:00:00Z,28.4460,-96.3961,0.0,14.6,11111222 
TCOON,ioos:station:TCOON:057:1,2004-01-21T22:00:00Z,28.4460,-96.3961,0.0,14.7,11111222 
TCOON,ioos:station:TCOON:057:1,2004-01-22T00:00:00Z,28.4460,-96.3961,0.0,14.8,11111222 
TCOON,ioos:station:TCOON:057:1,2004-01-22T01:00:00Z,28.4460,-96.3961,0.0,14.8,11111222 
TCOON,ioos:station:TCOON:057:1,2004-01-22T03:00:00Z,28.4460,-96.3961,0.0,14.7,11111222 
TCOON,ioos:station:TCOON:057:1,2004-01-22T04:00:00Z,28.4460,-96.3961,0.0,14.7,11111222 
TCOON,ioos:station:TCOON:057:1,2004-01-22T06:00:00Z,28.4460,-96.3961,0.0,14.8,11111222 
TCOON,ioos:station:TCOON:057:1,2004-01-22T07:00:00Z,28.4460,-96.3961,0.0,14.8,11111222 
TCOON,ioos:station:TCOON:057:1,2004-01-22T09:00:00Z,28.4460,-96.3961,0.0,14.5,11111222 
TCOON,ioos:station:TCOON:057:1,2004-01-22T10:00:00Z,28.4460,-96.3961,0.0,14.2,11111222 
TCOON,ioos:station:TCOON:057:1,2004-01-22T12:00:00Z,28.4460,-96.3961,0.0,13.8,11111222 
TCOON,ioos:station:TCOON:057:1,2004-01-22T13:00:00Z,28.4460,-96.3961,0.0,13.8,11111222 
TCOON,ioos:station:TCOON:057:1,2004-01-22T15:00:00Z,28.4460,-96.3961,0.0,13.6,11111222 
TCOON,ioos:station:TCOON:057:1,2004-01-22T16:00:00Z,28.4460,-96.3961,0.0,13.7,11111222 